K5BWX-7 Weather Reports


time (UTC)temp
C
wind
direction
speed
KPH
gust
KPH
rain 1hr
cm
rain 24hr
cm
rain mn
cm
humidity
%
barometer
mb
20260902140037 29 142 1.6 6.4 0.00 0.00 0.00 73 1018.3
20260902134515 28 156 1.6 4.8 0.00 0.00 0.00 76 1018.3
20260902133047 28 156 1.6 3.2 0.00 0.00 0.00 78 1018.2
20260902131511 27 156 1.6 3.2 0.00 0.00 0.00 79 1018.4
20260902130051 26 156 0.0 0.0 0.00 0.00 0.00 82 1018.3
20260902124525 25 156 0.0 0.0 0.00 0.00 0.00 85 1018.3
20260902123109 24 156 0.0 1.6 0.00 0.00 0.00 88 1018.3
20260902121521 23 156 0.0 0.0 0.00 0.00 0.00 89 1018.2
20260902120002 22 156 0.0 0.0 0.00 0.00 0.00 90 1018.1
20260902114547 21 156 0.0 0.0 0.00 0.00 0.00 90 1018.0
20260902113056 21 156 0.0 0.0 0.00 0.00 0.00 89 1017.8
20260902111545 21 156 0.0 3.2 0.00 0.00 0.00 90 1017.7
20260902110014 21 156 0.0 0.0 0.00 0.00 0.00 90 1017.5
20260902104553 21 156 0.0 0.0 0.00 0.00 0.00 89 1017.5
20260902103014 21 156 0.0 0.0 0.00 0.00 0.00 89 1017.2
20260902101554 21 156 0.0 0.0 0.00 0.00 0.00 89 1017.0
20260902100035 22 156 0.0 0.0 0.00 0.00 0.00 89 1017.0
20260902094512 22 156 0.0 0.0 0.00 0.00 0.00 89 1016.8
20260902093037 22 156 0.0 0.0 0.00 0.00 0.00 88 1016.7
20260902091518 22 156 0.0 0.0 0.00 0.00 0.00 88 1016.5
20260902090050 22 156 0.0 0.0 0.00 0.00 0.00 88 1016.4
20260902084526 22 156 0.0 0.0 0.00 0.00 0.00 87 1016.2
20260902083053 22 156 0.0 0.0 0.00 0.00 0.00 87 1016.3
20260902081527 22 156 0.0 0.0 0.00 0.00 0.00 87 1016.2
20260902080101 22 156 0.0 0.0 0.00 0.00 0.00 86 1016.1
20260902080003 22 156 0.0 0.0 0.00 0.00 0.00 86 1016.1
20260902074540 22 156 0.0 0.0 0.00 0.00 0.00 85 1016.2
20260902073058 22 156 0.0 0.0 0.00 0.00 0.00 85 1016.2
20260902071546 22 156 0.0 0.0 0.00 0.00 0.00 85 1016.1
20260902070016 23 156 0.0 0.0 0.00 0.00 0.00 84 1016.0
20260902064554 23 156 0.0 0.0 0.00 0.00 0.00 84 1016.1
20260902063015 23 156 0.0 0.0 0.00 0.00 0.00 83 1016.1
20260902061613 23 156 0.0 0.0 0.00 0.00 0.00 83 1016.1
20260902060030 23 156 0.0 0.0 0.00 0.00 0.00 82 1016.1
20260902054508 23 156 0.0 0.0 0.00 0.00 0.00 82 1016.2
20260902053031 24 156 0.0 0.0 0.00 0.00 0.00 81 1016.3
20260902051511 24 156 0.0 0.0 0.00 0.00 0.00 80 1016.3
20260902050043 24 156 0.0 0.0 0.00 0.00 0.00 79 1016.1
20260902044522 25 156 0.0 0.0 0.00 0.00 0.00 79 1016.2
20260902043041 25 156 0.0 0.0 0.00 0.00 0.00 78 1016.3
20260902041537 25 156 0.0 0.0 0.00 0.00 0.00 77 1016.3
20260902040052 25 156 0.0 0.0 0.00 0.00 0.00 76 1016.4
20260902034533 26 156 0.0 0.0 0.00 0.00 0.00 75 1016.3
20260902033056 26 156 0.0 0.0 0.00 0.00 0.00 74 1016.4
20260902031537 26 156 0.0 0.0 0.00 0.00 0.00 73 1016.4
20260902030014 26 156 0.0 0.0 0.00 0.00 0.00 73 1016.4
20260902024555 26 156 0.0 1.6 0.00 0.00 0.00 72 1016.5
20260902023017 26 156 0.0 6.4 0.00 0.00 0.00 72 1016.5
20260902021604 27 156 0.0 0.0 0.00 0.00 0.00 71 1016.4
20260902020048 27 156 0.0 0.0 0.00 0.00 0.00 69 1016.1
20260902014512 27 156 0.0 0.0 0.00 0.00 0.00 68 1016.1
20260902013033 28 156 0.0 0.0 0.00 0.00 0.00 67 1016.0
20260902011505 28 156 0.0 0.0 0.00 0.00 0.00 66 1015.9
20260902010043 29 156 0.0 0.0 0.00 0.00 0.00 64 1015.8
20260902004528 30 156 0.0 0.0 0.00 0.00 0.00 61 1015.6
20260902003038 31 156 0.0 0.0 0.00 0.00 0.00 59 1015.6
20260902001520 32 156 0.0 0.0 0.00 0.00 0.00 57 1015.6
20260901234544 34 156 0.0 0.0 0.00 0.00 0.00 49 1015.6
20260901233110 35 156 0.0 0.0 0.00 0.00 0.00 46 1015.6
20260901233005 35 156 0.0 0.0 0.00 0.00 0.00 46 1015.6
20260901231545 35 156 0.0 1.6 0.00 0.00 0.00 41 1015.7
20260901230038 35 156 1.6 8.0 0.00 0.00 0.00 41 1015.6
20260901224558 35 128 1.6 8.0 0.00 0.00 0.00 41 1015.6
20260901223024 36 105 0.0 6.4 0.00 0.00 0.00 40 1015.6
20260901221503 36 10 3.2 8.0 0.00 0.00 0.00 40 1015.5
20260901220048 35 130 0.0 9.7 0.00 0.00 0.00 43 1015.4
20260901214517 35 46 4.8 8.0 0.00 0.00 0.00 43 1015.7
20260901213041 34 129 0.0 8.0 0.00 0.00 0.00 46 1015.7
20260901211516 33 157 3.2 9.7 0.00 0.00 0.00 47 1015.8
20260901210108 35 146 4.8 12.9 0.00 0.00 0.00 45 1015.9
20260901204541 35 31 4.8 11.3 0.00 0.00 0.00 45 1015.8
20260901203110 35 129 4.8 9.7 0.00 0.00 0.00 45 1016.1
20260901201537 35 145 4.8 9.7 0.00 0.00 0.00 44 1016.2
20260901200019 34 155 3.2 8.0 0.00 0.00 0.00 47 1016.3
20260901194552 33 344 4.8 9.7 0.00 0.00 0.00 47 1016.4
20260901193021 34 50 3.2 11.3 0.00 0.00 0.00 47 1016.7
20260901191602 33 315 3.2 8.0 0.00 0.00 0.00 48 1016.8
20260901190050 33 159 4.8 9.7 0.00 0.00 0.00 49 1017.0
20260901184511 34 137 3.2 8.0 0.00 0.00 0.00 49 1017.2
20260901183031 35 227 3.2 9.7 0.00 0.00 0.00 47 1017.2
20260901181507 35 24 3.2 12.9 0.00 0.00 0.00 46 1017.4
20260901180047 34 327 4.8 14.5 0.00 0.00 0.00 46 1017.4
20260901174532 34 269 4.8 11.3 0.00 0.00 0.00 47 1017.4
20260901173043 33 232 4.8 11.3 0.00 0.00 0.00 48 1017.7
20260901171526 34 178 0.0 12.9 0.00 0.00 0.00 48 1018.0
20260901170100 33 229 1.6 12.9 0.00 0.00 0.00 50 1018.4
20260901164544 33 256 6.4 12.9 0.00 0.00 0.00 51 1018.5
20260901163003 33 320 4.8 19.3 0.00 0.00 0.00 52 1018.5
20260901161541 33 286 6.4 12.9 0.00 0.00 0.00 53 1018.8
20260901160025 32 194 6.4 12.9 0.00 0.00 0.00 56 1018.9
20260901154558 32 231 8.0 12.9 0.00 0.00 0.00 58 1018.9
20260901153030 32 325 4.8 12.9 0.00 0.00 0.00 59 1018.8
20260901151555 31 324 8.0 17.7 0.00 0.00 0.00 58 1019.0
20260901151504 31 315 8.0 17.7 0.00 0.00 0.00 58 1019.0
20260901150043 31 238 4.8 9.7 0.00 0.00 0.00 61 1018.9
20260901144521 31 202 1.6 9.7 0.00 0.00 0.00 63 1019.0
20260901143041 30 205 3.2 8.0 0.00 0.00 0.00 65 1019.0
20260901141521 30 173 3.2 6.4 0.00 0.00 0.00 69 1019.1